Regional Weather Roundup
Issued by NWS

Home | Current Version | Previous Version | Text Only | Print | Product List | Glossary On
Versions: 1 2 3 4 5 6 7 8 9 10 11 12 13 14 15 16 17 18 19 20 21 22 23 24 25 26 27 28 29 30 31 32 33 34 35 36 37 38 39 40 41 42 43 44 45 46 47 48 49 50
000
ASUS44 KFWD 020601
RWRTX
NORTH TEXAS HOURLY WEATHER ROUNDUP
NATIONAL WEATHER SERVICE FORT WORTH TX
100 AM CDT THU APR 02 2015

NOTE: "FAIR" INDICATES FEW OR NO CLOUDS BELOW 12,000 FEET WITH NO
SIGNIFICANT WEATHER AND/OR OBSTRUCTIONS TO VISIBILITY.

TXZ118-119-020700-
DALLAS/FORT WORTH METROPLEX

CITY           SKY/WX    TMP DP  RH WIND       PRES   REMARKS
DFW AIRPORT    PTCLDY    68  64  87 S17G26    29.85R
6HR MIN TEMP:  68; 6HR MAX TEMP:  76; 6HR PCP: TRACE;

DALLAS LOVE    PTCLDY    69  63  81 S16       29.85S
6HR MIN TEMP:  69; 6HR MAX TEMP:  78;

FTW MEACHAM    PTCLDY    70  64  81 S17G28    29.84R
6HR MIN TEMP:  69; 6HR MAX TEMP:  77; 6HR PCP: TRACE;

DAL-EXECUTIVE  CLEAR     68  64  87 S12G23    29.85S
6HR MIN TEMP:  68; 6HR MAX TEMP:  77;

FTW-ALLIANCE   PTCLDY    68  64  87 S17G23    29.83S
6HR MIN TEMP:  68; 6HR MAX TEMP:  73; 6HR PCP:  0.01;

FTW-NAS-JRB    PTCLDY    71  66  84 S20       29.88S
6HR MIN TEMP:  71; 6HR MAX TEMP:  79;

ARLINGTON      CLEAR     69  63  81 S14G22    29.86R
6HR MIN TEMP:  69; 6HR MAX TEMP:  78;

MESQUITE       PTCLDY    68  64  86 S15       29.88S
6HR MIN TEMP:  67; 6HR MAX TEMP:  76;

LANCASTER      PTCLDY    67  62  84 S12G17    29.88S
6HR MIN TEMP:  67; 6HR MAX TEMP:  75;

$$

TXZ091>094-102>105-117-120-121-131>134-020700-
NORTH CENTRAL TEXAS

CITY           SKY/WX    TMP DP  RH WIND       PRES   REMARKS
BRIDGEPORT     CLEAR     69  64  84 S12       29.83S
6HR MIN TEMP:  67; 6HR MAX TEMP:  74;

DENTON         CLEAR     68  64  87 S20G26    29.83S
6HR MIN TEMP:  68; 6HR MAX TEMP:  74;

MCKINNEY       CLEAR     68  63  84 S17       29.86R
6HR MIN TEMP:  68; 6HR MAX TEMP:  74; 6HR PCP: TRACE;

ROCKWALL       CLEAR     68  64  88 S15G24    29.86S
6HR MIN TEMP:  67; 6HR MAX TEMP:  77;

TERRELL        PTCLDY    69  64  84 S13       29.88S
6HR MIN TEMP:  69; 6HR MAX TEMP:  78; 6HR PCP: TRACE;

WAXAHACHIE     PTCLDY    67  66  97 S15G21    29.89R
6HR MIN TEMP:  67; 6HR MAX TEMP:  74;

$$

TXZ083>090-098>101-113>116-127>130-139>142-154-155-020700-
WESTERN NORTH TEXAS

CITY           SKY/WX    TMP DP  RH WIND       PRES   REMARKS
WICHITA FALLS  CLEAR     69  59  70 S16       29.74F
6HR MIN TEMP:  69; 6HR MAX TEMP:  80;

ABILENE        CLEAR     71  57  61 S22G30    29.82F
6HR MIN TEMP:  70; 6HR MAX TEMP:  82;

ABILENE-DYESS  CLEAR     70  58  66 S24G30    29.80F
6HR MIN TEMP:  37; 6HR MAX TEMP:  82;

MINERAL WELLS  CLEAR     67  61  81 SE12      29.81S
6HR MIN TEMP:  67; 6HR MAX TEMP:  75; 6HR PCP:  0.05;

COMANCHE       CLEAR     67  62  82 S14       29.86S
6HR MIN TEMP:  65; 6HR MAX TEMP:  75;

$$

TXZ143>147-156>162-174-175-020700-
CENTRAL TEXAS

CITY           SKY/WX    TMP DP  RH WIND       PRES   REMARKS
WACO           PTCLDY    68  65  90 S17       29.88F
6HR MIN TEMP:  67; 6HR MAX TEMP:  75;

WACO-MCGREGOR  CLEAR     66  61  82 S16G23    29.90S
6HR MIN TEMP:  66; 6HR MAX TEMP:  77;

CORSICANA      CLEAR     69  65  86 S16       29.90F
6HR MIN TEMP:  68; 6HR MAX TEMP:  77;

MEXIA          CLOUDY    67  65  94 S13G18    29.90S
6HR MIN TEMP:  66; 6HR MAX TEMP:  72; 6HR PCP:  0.10;

TEMPLE         PTCLDY    70  63  78 S16G23    29.89F
6HR MIN TEMP:  68; 6HR MAX TEMP:  75;

KILLEEN        CLOUDY    70  65  85 S14       29.89F
6HR MIN TEMP:  68; 6HR MAX TEMP:  77;

KILLEEN-SKYLRK PTCLDY    70  63  78 MISG      29.91S
6HR MIN TEMP:  70; 6HR MAX TEMP:  79;

FORT HOOD      PTCLDY    69  65  88 S12       29.89S
6HR MIN TEMP:  69; 6HR MAX TEMP:  77;

HAMILTON       CLEAR     69  63  81 S15G23    29.89S
6HR MIN TEMP:  67; 6HR MAX TEMP:  74;

$$

TXZ095>097-106>112-122>126-135>138-148>153-164>167-020700-
EAST TEXAS

CITY           SKY/WX    TMP DP  RH WIND       PRES   REMARKS
MINEOLA        PTCLDY    70  64  83 S9G18     29.90S
TYLER          CLEAR     68  63  84 S15       29.91S
6HR MIN TEMP:  67; 6HR MAX TEMP:  79; 6HR PCP: TRACE;

LONGVIEW       CLEAR     69  63  81 S14       29.91S
6HR MIN TEMP:  69; 6HR MAX TEMP:  78;

PALESTINE      PTCLDY    67  65  91 S7        29.93F
JACKSONVILLE   MOCLDY    67  65  94 S9G16     29.95F
NACOGDOCHES    PTCLDY    66  63  88 S10       29.96S
6HR MIN TEMP:  66; 6HR MAX TEMP:  73;

LUFKIN         CLOUDY    69  64  84 S9        29.95F
6HR MIN TEMP:  69; 6HR MAX TEMP:  74; 6HR PCP:  0.01;

$$

SUPPLEMENTAL OBSERVATIONS (CENTRAL)

CITY           SKY/WX    TMP DP  RH WIND       PRES   REMARKS
$$

SUPPLEMENTAL OBSERVATIONS (WEST)

CITY           SKY/WX    TMP DP  RH WIND       PRES   REMARKS
$$

SUPPLEMENTAL OBSERVATIONS (EAST)

CITY           SKY/WX    TMP DP  RH WIND       PRES   REMARKS
$$

SUPPLEMENTAL OBSERVATIONS ARE A COLLECTION OF AUTOMATED INSTRUMENTS
THAT ARE MAINTAINED BY A VARIETY OF FEDERAL AND STATE AGENCIES.
CERTAIN ELEMENTS...SUCH AS HUMIDITY VALUES AND SUSTAINED WIND
SPEEDS...MAY BE APPROXIMATED.



USA.gov is the U.S. government's official web portal to all federal, state and local government web resources and services.